Hourly Data Report for October 09, 2015

All times are specified in Local Standard Time (LST). Add 1 hour to adjust for Daylight Saving Time where and when it is observed.

KITCHENER/WATERLOO
ONTARIO

43°27'39.000" N
80°22'43.000" W
321.60 m
6144239
71368
YKF

Download Data

Hourly Data (October 2015)
Hourly Data Report for October 9, 2015
Temp Definition
°C
Dew Point Temp Definition
°C
Rel Hum Definition
%
Wind Dir Definition
10's deg

Wind Spd Definition
km/h
Visibility Definition
km
Stn Press Definition
kPa
Hmdx Definition


Wind Chill Definition


Weather Definition


TIME
00:00 Legend Double Dagger 10.8 10.0 95 36 9 11.3 97.39     Rain
01:00 Legend Double Dagger 10.5 10.2 98 10 8 6.4 97.23     Rain,Fog
02:00 Legend Double Dagger 10.6 10.3 98 LegendMM 4 6.4 97.20     Rain,Fog
03:00 Legend Double Dagger 10.8 10.5 98 12 5 4.0 97.12     Rain,Fog
04:00 Legend Double Dagger 11.1 10.8 98 20 5 2.4 97.08     Rain,Fog
05:00 Legend Double Dagger 11.5 11.2 98 LegendMM 4 2.4 97.10     Fog
06:00 Legend Double Dagger 13.5 13.2 98 24 11 2.4 97.12     Fog
07:00 Legend Double Dagger 14.1 13.3 95 28 11 4.8 97.14     Fog
08:00 Legend Double Dagger 14.4 13.5 94 27 11 9.7 97.19     Fog
09:00 Legend Double Dagger 14.4 12.8 90 29 22 16.1 97.25     LegendNANA
10:00 Legend Double Dagger 14.2 12.0 86 30 26 16.1 97.32     LegendNANA
11:00 Legend Double Dagger 14.3 11.5 83 30 21 16.1 97.38     LegendNANA
12:00 Legend Double Dagger 12.7 9.9 83 29 21 16.1 97.47     LegendNANA
13:00 Legend Double Dagger 11.8 9.6 86 31 26 16.1 97.51     LegendNANA
14:00 Legend Double Dagger 11.5 8.9 84 30 21 16.1 97.57     LegendNANA
15:00 Legend Double Dagger 11.3 8.3 82 32 26 16.1 97.64     LegendNANA
16:00 Legend Double Dagger 11.2 8.2 82 31 21 16.1 97.75     LegendNANA
17:00 Legend Double Dagger 11.1 7.1 76 32 18 16.1 97.81     LegendNANA
18:00 Legend Double Dagger 9.7 6.8 82 33 17 16.1 97.94     LegendNANA
19:00 Legend Double Dagger 8.7 6.3 85 31 11 16.1 98.04     LegendNANA
20:00 Legend Double Dagger 6.9 5.6 91 30 8 16.1 98.11     LegendNANA
21:00 Legend Double Dagger 6.0 5.3 95 29 8 16.1 98.16     LegendNANA
22:00 Legend Double Dagger 5.8 5.1 95 29 8 16.1 98.23     LegendNANA
23:00 Legend Double Dagger 4.7 4.4 98 31 5 6.4 98.24     Fog

Notes on Data Quality.

Legend

  • E = Estimated
  • M = Missing
  • NA = Not Available
  • ‡ = Partner data that is not subject to review by the National Climate Archives
Date modified: